Probability
6 26 19 13 3 6 6 6 3 10 13 16 6 16 13 32 0 23 23 0 0 0 0 0 0 0 0 0 0 0 0 0 0 0 0 0 3 6
23 19 13 3 13 6 6 13 10 3 6 13 10 10 10 0 0 32 13 0 0 0 0 0 0 0 0 0 0 0 0 0 0 0 0 0 0 0
13 6 13 6 10 6 6 3 13 3 3 10 6 13 23 6 3 6 10 10 0 0 0 0 0 0 0 0 0 0 0 0 0 0 0 0 0 0
6 0 0 0 13 10 10 6 6 10 3 10 6 6 6 6 3 19 0 0 0 0 0 0 0 0 0 0 0 0 0 0 0 0 0 0 0 0
0 0 0 3 3 6 3 10 6 0 6 6 3 10 6 0 6 0 0 3 0 0 0 0 0 0 0 0 0 0 0 0 0 0 0 0 0 0
0 0 0 0 0 3 3 6 3 0 3 10 6 10 10 3 10 10 6 3 6 0 0 0 0 0 0 0 0 0 0 0 0 0 0 0 0 0
0 0 0 0 0 0 0 6 3 10 6 0 3 3 6 3 6 6 6 3 3 3 3 6 3 0 0 0 0 0 0 0 0 0 0 0 0 0
3 0 0 0 0 0 0 0 0 0 0 0 0 0 0 0 0 0 0 0 0 0 0 0 0 0 0 0 0 0 0 0 0 0 0 0 0 0
6 3 0 0 0 0 0 0 0 0 0 0 0 0 0 0 0 0 0 0 0 0 0 0 0 0 0 0 0 0 0 0 0 0 0 0 0 0
6 6 0 0 0 0 0 0 0 0 0 0 0 0 0 0 0 0 0 0 0 0 0 0 0 0 0 0 0 0 0 0 0 0 0 0 0 0
3 3 0 0 0 0 0 0 0 0 0 0 0 0 0 0 0 0 0 0 0 0 0 0 0 0 0 0 0 0 0 0 0 0 0 0 0 0
0 0 0 0 0 0 0 0 0 0 0 0 0 0 0 0 0 0 0 0 0 0 0 0 0 0 0 0 0 0 0 0 0 0 0 0 0 0
0 0 0 0 0 0 0 0 0 0 0 0 0 0 0 0 0 0 0 0 0 0 0 0 0 0 0 0 0 0 0 0 0 0 0 0 0 0
0 0 0 0 0 0 0 0 0 0 0 0 0 0 0 0 0 0 0 0 0 0 0 0 0 0 0 0 0 0 0 0 0 0 0 0 0 0
0 0 0 0 0 0 0 0 0 0 0 0 0 0 0 0 0 0 0 0 0 0 0 0 0 0 0 0 0 0 0 0 0 0 0 0 0 0
0 0 0 0 0 0 0 0 0 0 0 0 0 0 0 0 0 0 0 0 0 0 0 0 0 0 0 0 0 0 0 0 0 0 0 0 0 0
0 0 0 0 0 0 0 0 0 0 0 0 0 0 0 0 0 0 0 0 0 0 0 0 0 0 0 0 0 0 0 0 0 0 0 0 0 0
0 0 0 0 0 0 0 0 0 0 0 0 0 0 0 0 0 0 0 0 0 0 0 0 0 0 0 0 0 0 0 0 0 0 0 0 0 0
0 0 0 0 0 0 0 0 0 0 0 0 0 0 0 0 0 0 0 0 0 0 0 0 0 0 0 0 0 0 0 0 0 0 0 0 0 0
0 0 0 0 0 0 0 0 0 0 0 0 0 0 0 0 0 0 0 0 0 0 0 0 0 0 0 0 0 0 0 0 0 0 0 0 0 0
0 0 0 0 0 0 0 0 0 0 0 0 0 0 0 0 0 0 0 0 0 0 0 0 0 0 0 0 0 0 0 0 0 0 0 0 0 0
0 0 0 0 0 0 0 0 0 0 0 0 0 0 0 0 0 0 0 0 0 0 0 0 0 0 0 0 0 0 0 0 0 0 0 0 0 0
0 0 0 0 0 0 0 0 0 0 0 0 0 0 0 0 0 0 0 0 0 0 0 0 0 0 0 0 0 0 0 0 0 0 0 0 0 0
Height
5872 5873 5874 5874 5874 5875 5875 5875 5875 5875 5875 5874 5874 5873 5872 5872 5871 5870 5869 5869 5868 5867 5866 5865 5864 5863 5862 5861 5860 5859 5858 5858 5857 5856 5855 5854 5854 5853
5867 5868 5868 5869 5869 5870 5870 5870 5869 5869 5868 5868 5868 5867 5866 5866 5865 5864 5863 5862 5861 5860 5859 5858 5857 5856 5855 5854 5853 5852 5851 5850 5848 5848 5847 5846 5845 5844
5862 5863 5863 5864 5864 5864 5864 5864 5863 5863 5862 5861 5861 5860 5859 5859 5857 5856 5855 5854 5853 5852 5851 5850 5848 5847 5846 5845 5844 5842 5841 5840 5839 5838 5837 5836 5835 5834
5857 5857 5857 5858 5858 5857 5857 5857 5856 5856 5855 5855 5854 5853 5852 5851 5850 5848 5847 5846 5844 5843 5842 5841 5839 5838 5836 5835 5834 5833 5831 5830 5828 5827 5826 5825 5824 5823
5851 5851 5851 5851 5851 5851 5850 5850 5849 5849 5848 5847 5846 5845 5844 5842 5841 5839 5838 5836 5835 5833 5832 5830 5829 5827 5826 5825 5823 5821 5820 5818 5817 5815 5814 5813 5811 5810
5845 5844 5844 5844 5844 5844 5843 5843 5842 5841 5840 5839 5838 5836 5835 5833 5832 5830 5829 5827 5825 5823 5822 5820 5818 5816 5814 5813 5811 5809 5808 5806 5804 5802 5801 5799 5798 5796
5838 5838 5837 5837 5837 5836 5836 5835 5834 5833 5832 5830 5829 5827 5826 5824 5822 5820 5818 5816 5814 5812 5810 5807 5805 5803 5801 5799 5797 5795 5793 5791 5790 5788 5786 5784 5783 5781
5831 5831 5830 5830 5829 5829 5828 5827 5826 5825 5823 5822 5820 5818 5816 5814 5812 5810 5807 5805 5803 5801 5798 5794 5792 5789 5786 5784 5782 5780 5777 5775 5773 5771 5770 5768 5766 5764
5825 5824 5823 5822 5822 5821 5820 5819 5817 5815 5814 5812 5810 5808 5806 5804 5801 5798 5795 5793 5790 5787 5784 5781 5778 5774 5771 5768 5766 5763 5760 5758 5756 5753 5751 5749 5747 5746
5818 5817 5816 5815 5814 5813 5811 5809 5808 5806 5804 5802 5800 5797 5795 5792 5789 5786 5783 5779 5776 5772 5770 5766 5762 5759 5755 5751 5748 5745 5742 5739 5737 5734 5732 5729 5727 5726
5811 5810 5809 5807 5806 5804 5802 5800 5798 5796 5794 5791 5788 5785 5782 5779 5775 5772 5769 5765 5761 5757 5754 5750 5746 5742 5738 5733 5729 5727 5723 5720 5717 5714 5711 5709 5706 5704
5804 5802 5800 5799 5797 5795 5793 5790 5788 5785 5782 5779 5776 5773 5769 5766 5762 5758 5754 5750 5745 5741 5737 5733 5728 5724 5720 5715 5710 5706 5703 5699 5696 5692 5689 5686 5683 5681
5795 5794 5792 5790 5787 5785 5782 5780 5777 5774 5770 5767 5763 5759 5755 5751 5747 5743 5738 5733 5728 5723 5718 5714 5709 5704 5700 5696 5691 5686 5682 5678 5674 5670 5667 5664 5661 5658
5787 5785 5783 5780 5778 5775 5772 5768 5765 5762 5758 5753 5749 5745 5740 5736 5731 5726 5721 5715 5710 5705 5700 5694 5689 5684 5680 5675 5671 5666 5661 5656 5652 5649 5645 5642 5639 5636
5778 5775 5772 5770 5767 5764 5760 5757 5753 5749 5744 5740 5735 5730 5725 5720 5714 5709 5703 5698 5692 5686 5681 5675 5670 5664 5659 5654 5650 5645 5641 5636 5631 5628 5625 5621 5618 5616
5768 5765 5762 5759 5756 5753 5749 5745 5740 5736 5731 5726 5720 5715 5709 5704 5698 5692 5686 5679 5673 5667 5661 5656 5650 5644 5639 5633 5629 5625 5620 5616 5612 5609 5606 5602 5599 5596
5758 5755 5752 5749 5745 5741 5737 5732 5728 5723 5717 5712 5706 5700 5694 5688 5682 5675 5669 5662 5655 5649 5643 5637 5632 5626 5620 5615 5611 5606 5602 5598 5594 5591 5589 5586 5583 5580
5749 5746 5742 5738 5734 5730 5725 5721 5716 5710 5705 5699 5693 5687 5680 5673 5666 5659 5652 5646 5639 5633 5627 5621 5616 5610 5605 5599 5594 5590 5586 5583 5579 5576 5573 5571 5569 5566
5739 5736 5732 5728 5724 5719 5715 5710 5705 5699 5693 5687 5681 5674 5667 5660 5653 5646 5639 5632 5625 5619 5613 5607 5601 5596 5591 5586 5580 5575 5572 5569 5566 5563 5560 5558 5556 5554
5730 5726 5722 5718 5714 5710 5705 5700 5694 5688 5682 5676 5669 5663 5655 5648 5641 5635 5628 5621 5614 5607 5601 5595 5589 5583 5578 5574 5569 5564 5559 5557 5554 5552 5549 5547 5545 5543
5720 5717 5713 5709 5705 5700 5695 5690 5685 5679 5673 5666 5659 5653 5646 5639 5632 5625 5618 5611 5604 5598 5591 5585 5579 5573 5568 5563 5559 5555 5550 5547 5544 5541 5539 5537 5535 5533
5713 5709 5705 5701 5696 5692 5687 5682 5676 5670 5664 5658 5651 5644 5638 5631 5624 5617 5610 5603 5596 5589 5583 5577 5571 5565 5560 5556 5551 5547 5543 5539 5536 5533 5531 5529 5527 5525
5705 5701 5697 5693 5689 5684 5679 5674 5668 5662 5656 5650 5644 5637 5630 5624 5617 5610 5603 5596 5589 5583 5577 5570 5565 5559 5554 5549 5544 5540 5536 5533 5530 5527 5524 5522 5520 5519
Wind_Speed
20 20 20 20 20 20 20 21 21 21 21 21 22 22 23 23 23 23 24 24 25 25 26 27 27 27 27 27 28 28 28 29 29 30 30 30 30 31
21 22 22 22 22 22 23 23 24 24 24 25 25 25 26 27 27 27 28 28 28 29 30 30 31 31 31 31 31 32 32 33 33 34 34 34 35 35
23 23 23 23 24 24 25 26 27 27 27 28 29 29 29 30 30 31 31 32 32 32 32 33 33 33 34 34 35 35 36 36 37 37 38 38 39 39
23 23 24 25 26 26 27 27 28 29 29 29 30 31 31 32 32 33 34 34 35 35 35 36 37 37 37 37 38 38 39 40 41 41 42 42 43 43
23 24 25 26 27 28 29 29 28 29 30 31 32 33 33 34 35 36 36 37 37 38 38 39 39 40 40 41 41 42 43 43 44 44 45 46 46 47
25 26 27 28 29 29 29 30 30 30 31 32 33 34 36 37 38 38 39 40 40 41 41 42 43 44 44 45 46 46 47 47 48 48 49 50 50 51
26 27 28 29 29 30 31 31 31 32 32 34 35 36 37 38 39 41 41 42 43 43 45 46 47 48 49 49 50 51 52 52 53 53 54 54 54 55
26 28 29 29 30 32 32 33 33 33 34 36 37 38 38 39 41 43 44 45 46 46 47 49 50 51 52 52 53 54 55 56 57 57 57 58 58 59
26 27 28 29 29 32 33 33 34 35 36 37 38 39 41 42 44 45 46 48 49 50 50 51 52 54 55 56 56 57 58 59 59 60 61 61 62 62
27 28 28 29 30 31 33 34 35 36 37 39 41 43 44 45 46 47 48 50 51 52 53 54 56 57 59 60 60 60 61 61 62 63 63 64 64 64
28 28 29 30 31 33 34 34 35 36 38 40 42 44 46 47 48 50 51 53 54 55 55 56 58 59 60 61 62 62 63 64 65 66 66 67 67 67
29 29 30 31 32 34 35 36 37 39 41 43 45 47 48 50 51 52 53 55 56 57 58 59 60 61 61 62 64 65 66 67 68 68 69 69 69 69
31 32 33 34 35 36 38 39 40 42 44 46 47 49 50 52 53 54 56 57 58 59 61 62 62 63 64 64 65 66 67 68 68 69 69 69 68 69
33 34 36 37 38 40 41 42 43 45 47 48 50 51 52 54 55 56 57 59 60 61 62 63 63 64 64 65 65 66 66 67 66 66 65 65 64 64
35 37 38 39 41 43 43 44 45 47 48 49 51 52 53 55 57 58 59 60 61 61 62 62 63 64 64 64 64 64 64 63 62 61 60 59 59 59
36 37 39 40 41 43 44 45 46 47 48 49 51 53 54 55 56 57 58 59 59 60 61 61 61 61 61 60 60 59 59 58 56 55 54 53 54 54
37 38 39 40 41 42 43 44 45 46 47 49 50 51 52 53 54 56 56 57 57 57 57 56 55 55 55 55 54 54 53 51 50 49 48 47 47 47
35 36 37 38 39 40 41 42 43 44 45 46 47 48 50 51 51 52 52 51 51 51 51 50 50 49 49 50 49 48 47 46 45 43 42 41 41 40
33 34 35 36 37 39 39 40 41 42 43 43 44 45 46 47 47 47 47 47 46 46 46 46 45 45 44 44 44 44 42 40 39 38 37 36 36 35
32 33 35 35 36 37 37 38 39 40 41 42 42 43 43 43 43 43 43 43 42 42 42 42 41 41 40 39 38 38 37 36 34 33 33 32 32 31
31 32 33 33 34 35 36 36 37 38 39 39 40 40 40 40 39 40 40 40 39 39 38 38 37 36 35 35 33 33 32 32 31 30 29 28 27 27
30 31 31 32 33 33 34 34 35 35 36 37 37 37 37 37 37 37 37 36 36 35 34 34 33 32 31 30 29 28 28 27 26 26 25 25 23 22
29 30 30 30 30 31 31 32 32 33 34 34 35 35 35 35 35 34 34 33 33 32 32 31 30 29 28 27 26 25 24 24 23 23 23 22 21 19
Wind_Direction
250 252 253 254 256 258 260 261 262 264 265 266 268 270 271 273 275 276 276 276 277 276 276 276 276 276 276 276 276 276 276 276 277 277 277 277 277 278
252 255 255 257 258 259 260 262 263 265 266 267 269 270 273 274 275 276 277 277 277 277 277 276 276 276 276 275 276 276 276 276 276 276 276 276 276 277
253 255 257 258 259 260 262 265 266 267 268 269 270 272 273 274 275 276 277 277 277 276 276 277 277 277 277 276 276 276 276 276 276 276 276 277 276 276
254 255 257 259 260 261 264 266 267 268 269 270 271 273 274 276 277 277 278 277 277 277 277 277 276 277 276 276 276 276 276 276 276 276 276 276 276 276
256 258 259 260 262 264 266 268 269 269 270 271 273 274 275 276 277 278 279 279 278 277 277 278 277 277 276 276 277 277 277 277 277 277 277 277 277 276
260 262 262 262 263 265 268 269 270 272 273 274 274 275 276 276 278 280 280 280 279 279 279 278 278 277 277 277 277 277 277 276 276 276 277 277 277 276
263 264 265 264 264 266 269 271 271 272 273 274 276 276 277 278 278 279 280 280 280 280 280 280 279 278 278 277 277 278 278 277 277 277 277 277 277 277
266 267 268 267 267 269 269 271 272 273 274 276 276 276 278 279 279 279 280 281 281 281 281 281 281 281 281 280 279 278 277 277 277 277 277 277 277 276
270 271 272 271 272 273 273 274 276 276 277 277 278 279 280 281 282 282 282 282 283 283 282 281 281 282 282 281 281 280 280 279 279 278 278 277 277 276
273 275 276 276 275 277 278 279 279 279 279 280 280 281 282 283 283 283 283 284 284 284 283 283 283 283 283 282 282 282 281 281 280 279 279 278 278 278
275 276 277 277 278 281 283 283 283 283 283 283 283 284 285 285 285 285 285 286 286 285 285 284 284 283 283 283 283 283 282 282 282 281 281 280 279 279
279 279 280 281 282 283 284 284 285 285 286 286 286 286 286 286 286 287 287 286 286 285 285 285 285 285 284 284 284 284 284 283 283 282 282 282 282 281
281 282 282 283 284 285 286 286 287 288 289 290 290 289 289 288 288 288 288 288 288 288 287 287 286 286 286 286 285 285 284 284 284 284 283 283 283 282
280 282 283 284 286 288 288 287 289 290 291 291 291 291 292 291 291 291 291 291 291 290 290 289 289 288 287 286 286 286 286 285 285 284 284 283 282 282
281 283 285 285 287 288 290 290 292 293 293 293 293 293 294 294 294 293 292 292 292 292 291 291 290 289 289 288 288 287 286 286 285 284 283 283 282 282
286 288 289 289 290 292 293 294 295 295 296 296 296 296 296 296 296 295 295 295 295 294 294 293 292 292 291 290 290 289 288 287 286 285 284 283 282 281
289 291 292 293 294 295 295 297 298 298 298 299 300 300 300 299 299 299 298 298 297 296 296 295 294 294 293 293 292 291 290 289 288 287 285 284 283 282
294 295 295 296 297 298 299 300 301 302 303 303 303 303 304 304 303 303 302 301 301 300 299 298 298 297 296 296 294 293 292 290 289 288 287 285 283 282
298 299 300 301 302 302 303 304 306 307 307 308 308 308 309 309 308 307 307 306 306 305 304 303 302 300 299 297 296 294 293 291 290 289 287 286 285 283
301 302 303 304 305 305 307 309 310 311 312 312 313 314 314 313 312 311 311 310 310 309 308 308 306 305 303 302 300 297 295 293 292 290 289 288 286 284
306 307 308 309 309 310 311 312 314 315 317 318 318 318 317 316 316 315 315 315 314 313 313 312 311 310 308 307 305 303 300 297 295 294 292 290 288 285
309 310 311 311 312 313 315 316 318 320 322 322 322 322 322 321 322 322 321 321 320 320 319 318 317 316 314 313 311 309 305 302 300 298 296 294 291 288
310 311 312 313 314 316 318 320 322 324 326 326 327 327 327 327 327 328 328 327 327 326 325 325 323 322 321 319 318 316 314 311 307 303 301 299 297 294